Regional Weather Roundup
Issued by NWS

Home | Current Version | Previous Version | Graphics & Text | Print | Product List | Glossary On
Versions: 1 2 3 4 5 6 7 8 9 10 11 12 13 14 15 16 17 18 19 20 21 22 23 24 25 26 27 28 29 30 31 32 33 34 35 36 37 38 39 40 41 42 43 44 45 46 47 48 49 50
000
ASUS43 KTOP 311808
RWRKS

WEATHER ROUNDUP FOR KANSAS
NATIONAL WEATHER SERVICE GOODLAND KS
100 PM CDT MON AUG 31 2015

NOTE:  "FAIR" INDICATES FEW OR NO CLOUDS BELOW 12,000 FEET WITH NO
SIGNIFICANT WEATHER AND/OR OBSTRUCTIONS TO VISIBILITY.

KSZ001>006-013>018-027>032-041>047-311900-
NORTHWEST KANSAS

CITY           SKY/WX    TMP DP  RH WIND       PRES   REMARKS
GOODLAND       SUNNY     89  52  28 VRB6      29.97F
6HR MIN TEMP:  57; 6HR MAX TEMP:  90;

HAYS           SUNNY     91  61  35 S12       29.92F
HILL CITY      SUNNY     92  57  30 SE10      29.92F
6HR MIN TEMP:  60; 6HR MAX TEMP:  93;

RUSSELL        SUNNY     93  57  29 S21G30    29.91F
6HR MIN TEMP:  65; 6HR MAX TEMP:  93;

$$

KSZ061>065-074>080-084>089-311900-
SOUTHWEST KANSAS

CITY           SKY/WX    TMP DP  RH WIND       PRES   REMARKS
DODGE CITY     SUNNY     89  55  31 S16G25    29.95F
6HR MIN TEMP:  61; 6HR MAX TEMP:  89;

ELKHART          N/A     88  55  32 S14         N/A
GARDEN CITY    SUNNY     90  55  30 S14       29.94F
6HR MIN TEMP:  60; 6HR MAX TEMP:  90;

GREAT BEND     SUNNY     93  59  31 S23G29    29.91F
LIBERAL        SUNNY     91  54  27 S22G29    29.96F
PRATT          SUNNY     91  55  29 MISG      29.96F
$$

KSZ066>073-081>083-090>101-311900-
SOUTHEAST KANSAS

CITY           SKY/WX    TMP DP  RH WIND       PRES   REMARKS
CHANUTE        SUNNY     85  69  58 S12       30.00F
6HR MIN TEMP:  68; 6HR MAX TEMP:  85;

COFFEYVILLE    SUNNY     85  72  65 S10       29.99F
6HR MIN TEMP:  66; 6HR MAX TEMP:  86;

HUTCHINSON     SUNNY     88  67  49 S10       29.95F
6HR MIN TEMP:  67; 6HR MAX TEMP:  89;

MEDICINE LODGE   N/A     88  63  43 S9        29.94F
NEWTON         SUNNY     88  66  48 S12G17    29.99S
PARSONS        SUNNY     85  72  65 S8        30.01F
6HR MIN TEMP:  67; 6HR MAX TEMP:  85;

WICHITA INTL   MOSUNNY   87  67  51 SE12      29.95F
6HR MIN TEMP:  69; 6HR MAX TEMP:  87;

WICHITA JABRA  SUNNY     85  68  56 S13       29.96F
6HR MIN TEMP:  65; 6HR MAX TEMP:  85;

WICHITA MCCONL SUNNY     85  57  38 SE12      29.96F
WINFIELD       SUNNY     88  65  46 S9        29.98F
6HR MIN TEMP:  67; 6HR MAX TEMP:  89;

$$

KSZ007>012-019>026-033>040-048>060-102>105-311900-
NORTHEAST KANSAS

CITY           SKY/WX    TMP DP  RH WIND       PRES   REMARKS
CONCORDIA      SUNNY     85  68  56 S14       29.94F
6HR MIN TEMP:  65; 6HR MAX TEMP:  85;

EMPORIA        SUNNY     86  70  58 SE10      29.97F
6HR MIN TEMP:  64; 6HR MAX TEMP:  86;

LAWRENCE       SUNNY     86  69  56 S8        29.97F
6HR MIN TEMP:  64; 6HR MAX TEMP:  88;

MANHATTAN      SUNNY     88  69  53 S9        29.94F
6HR MIN TEMP:  62; 6HR MAX TEMP:  89;

MARYSVILLE     SUNNY    N/A N/A N/A S10G17    29.96F
OLATHE IND     SUNNY     85  70  60 S6        30.00F
6HR MIN TEMP:  69; 6HR MAX TEMP:  85;

OLATHE EXE     SUNNY     83  71  67 S12       29.99F
6HR MIN TEMP:  68; 6HR MAX TEMP:  84;

SALINA         SUNNY     92  64  39 S13G20    29.92F
6HR MIN TEMP:  62; 6HR MAX TEMP:  92;

TOPEKA BILLARD SUNNY     87  69  54 S7        29.97F
6HR MIN TEMP:  65; 6HR MAX TEMP:  87;

TOPEKA FORBES  SUNNY     88  70  55 S10       29.97F
6HR MIN TEMP:  64; 6HR MAX TEMP:  88;

$$



USA.gov is the U.S. government's official web portal to all federal, state and local government web resources and services.